User: anonymous   Login
Location: Unspecified
(0.0000°N, 0.0000°E)
Time: 07:23:48
(UTC+00:00)
Language:

Elektron 3 - Orbit

View from above orbital plane
View from above orbital plane
View from above satellite
View from above satellite

Ground track
Ground track

The orbit data is extracted from the following two-line orbital elements,

1 00829U 64038A   21067.71894788  .00000331  00000-0  11079-3 0  9996
2 00829  60.8212 330.3615 2970652 196.4553 151.4669  9.14165695838732
Epoch (UTC): 08 March 2021 17:15:17
Eccentricity: 0.2970652
inclination: 60.8212°
perigee height: 413 km
apogee height: 6153 km
right ascension of ascending node: 330.3615°
argument of perigee: 196.4553°
revolutions per day: 9.14165695
mean anomaly at epoch: 151.4669°
orbit number at epoch: 83873

The dashed part of the orbit path shows where the satellite is in the earth's shadow,  

DLR